User: anonymous   Login
Location: Caltech
(34.1382°N, 118.1253°W)
Time: 21:47:31
(UTC-07:00)
Language:

CZ-2C R/B - Orbit

View from above orbital plane
View from above orbital plane
View from above satellite
View from above satellite

Ground track
Ground track

The orbit data is extracted from the following two-line orbital elements,

1 36089U 09061B   17207.08917215 +.00000059 +00000-0 +26130-4 0  9992
2 36089 098.0527 207.1634 0080687 286.1893 113.1533 14.49670819407252
Epoch (UTC): 26 July 2017 02:08:24
Eccentricity: 0.0080687
inclination: 98.0527°
perigee height: 669 km
apogee height: 784 km
right ascension of ascending node: 207.1634°
argument of perigee: 286.1893°
revolutions per day: 14.49670819
mean anomaly at epoch: 113.1533°
orbit number at epoch: 40725

The dashed part of the orbit path shows where the satellite is in the earth's shadow,  

DLR